[[{"header":{"parameterUnit":"m.s-1","parameterCategory":1,"la1":30.2991,"la2":30.254,"lo1":-89.0895,"lo2":-89.0444,"dy":0.0017,"dx":0.0017,"nx":28,"ny":28,"refTime":"2024-03-14T09:00:00:Z","depth":0,"parameterNumber":2,"parameterNumberName":"U-component_of_WINDS"},"data":[0,0,0,0,0,0,0,0,0,0,0,0,0,0,0,0,0,0,0,0,0,0,0,0,0,0,0,0,0,0,0,0,0,0,0,0,0,0,0,0,0,0,0,0,0,0,0,0,0,0,0,0,0,0,0,0,0,0,-1.4166,-1.4167,0,-1.4226,-1.4227,-1.4228,-1.4237,-1.4236,-1.4236,-1.4235,-1.4296,-1.4299,-1.4301,0,0,0,0,0,0,0,0,0,0,0,0,0,-1.4058,-1.406,-1.4166,-1.4167,-1.4167,-1.4226,-1.4227,-1.4228,-1.4237,-1.4236,-1.4236,-1.4235,-1.4296,-1.4298,-1.4301,0,0,0,0,0,0,0,0,0,0,0,0,0,-1.411,-1.4061,-1.4166,-1.4179,-1.4181,-1.4226,-1.4227,-1.4228,-1.4237,-1.4236,-1.4236,-1.4235,-1.4295,-1.4298,-1.4301,-1.4337,0,0,-1.4311,-1.4312,0,0,0,0,0,0,0,0,-1.4107,-1.4114,-1.4176,-1.4178,-1.418,-1.4223,-1.4211,-1.4264,-1.4237,-1.4216,-1.4235,-1.4234,-1.4273,-1.4278,-1.4291,-1.434,-1.4342,-1.4311,-1.4313,-1.4314,-1.4315,0,0,0,0,0,0,0,-1.4104,-1.4112,-1.419,-1.4177,-1.418,-1.4182,-1.4188,-1.4221,-1.4248,-1.4218,-1.4218,-1.4225,-1.4274,-1.4288,-1.4292,-1.4343,-1.4311,-1.4314,-1.4316,-1.4317,-1.4424,-1.4425,0,0,0,0,0,0,-1.4098,-1.4109,-1.4188,-1.4191,-1.4141,-1.4185,-1.4192,-1.421,-1.4248,-1.4253,-1.4226,-1.4226,-1.4283,-1.4288,-1.4294,-1.4338,-1.4314,-1.4317,-1.4319,-1.4423,-1.4424,-1.4425,0,0,0,0,0,0,-1.4096,-1.4105,-1.4185,-1.415,-1.4161,-1.4187,-1.4208,-1.4212,-1.4226,-1.4254,-1.4259,-1.4236,-1.4282,-1.429,-1.4326,-1.434,-1.4319,-1.4322,-1.4422,-1.4423,-1.4425,-1.4426,0,0,0,0,0,0,-1.4092,-1.4104,-1.4118,-1.4151,-1.4163,-1.4216,-1.4209,-1.4214,-1.4231,-1.4231,-1.4264,-1.4269,-1.4282,-1.4321,-1.4329,-1.4344,-1.4324,-1.4421,-1.4423,-1.4424,-1.4424,-1.4427,-1.4429,0,0,0,0,0,-1.4089,-1.4116,-1.4118,-1.4128,-1.4181,-1.4217,-1.4224,-1.4239,-1.4232,-1.4246,-1.4265,-1.4268,-1.4338,-1.4325,-1.4334,-1.435,-1.442,-1.4422,-1.4424,-1.4423,-1.4426,-1.4429,0,0,0,0,0,0,-1.4083,-1.412,-1.4124,-1.4162,-1.4186,-1.4218,-1.4236,-1.4242,-1.4268,-1.4267,-1.4284,-1.4291,-1.4327,-1.4342,-1.4327,-1.4386,-1.4378,-1.4382,-1.4375,-1.4378,-1.438,-1.4375,-1.4327,0,0,0,0,0,-1.4087,-1.4114,-1.4144,-1.4175,-1.4187,-1.421,-1.4226,-1.4236,-1.4261,-1.4272,-1.4292,-1.4317,-1.4345,-1.4362,-1.4389,-1.4427,-1.4434,-1.4443,-1.4445,-1.4447,-1.445,-1.447,-1.4474,-1.4432,-1.4432,-1.4432,0,0,-1.4094,-1.4117,-1.4133,-1.4175,-1.4195,-1.4221,-1.4218,-1.4247,-1.4267,-1.4276,-1.4311,-1.4327,-1.4356,-1.4393,-1.4411,-1.4407,-1.4463,-1.4449,-1.4451,-1.4453,-1.4473,-1.4477,-1.448,-1.4433,-1.4433,-1.4433,0,0,-1.4121,-1.4141,-1.4169,-1.4189,-1.4219,-1.4234,-1.4241,-1.4273,-1.4284,-1.432,-1.4327,-1.4351,-1.4398,-1.4418,-1.4434,-1.4469,-1.4472,-1.4477,-1.4489,-1.4509,-1.4512,-1.4515,-1.4526,-1.4531,-1.448,-1.448,-1.448,0,-1.4125,-1.4166,-1.4183,-1.4211,-1.4229,-1.4239,-1.4267,-1.4286,-1.4323,-1.4335,-1.4331,-1.439,-1.441,-1.4452,-1.446,-1.4474,-1.4481,-1.4473,-1.451,-1.4513,-1.4517,-1.4528,-1.4532,-1.4481,-1.4481,-1.4481,-1.4481,0,-1.4171,-1.4199,-1.4218,-1.4254,-1.4274,-1.4302,-1.4322,-1.4341,-1.4349,-1.4364,-1.44,-1.4425,-1.4457,-1.4468,-1.4476,-1.4511,-1.4507,-1.4507,-1.4499,-1.4521,-1.4531,-1.4536,-1.4481,-1.4481,-1.4481,-1.4481,0,0,-1.4194,-1.4239,-1.4246,-1.4262,-1.4296,-1.4318,-1.4347,-1.4379,-1.4394,-1.442,-1.4443,-1.4483,-1.4483,-1.4501,-1.4512,-1.453,-1.4555,-1.4527,-1.4528,-1.453,-1.4594,-1.4593,-1.4598,-1.4558,-1.4559,-1.456,-1.4591,0,-1.4224,-1.4275,-1.4291,-1.4334,-1.436,-1.437,-1.4395,-1.4418,-1.4433,-1.4458,-1.4475,-1.4502,-1.45,-1.4511,-1.453,-1.4548,-1.4568,-1.4546,-1.458,-1.4581,-1.4571,-1.4604,-1.4603,-1.4631,-1.4595,-1.4596,-1.4597,0,-1.4265,-1.4292,-1.4337,-1.4368,-1.4379,-1.4401,-1.4431,-1.4454,-1.4481,-1.4491,-1.4512,-1.4522,-1.4552,-1.4543,-1.4584,-1.4569,-1.4584,-1.4596,-1.4597,-1.46,-1.4589,-1.4606,-1.4641,-1.4645,-1.4604,-1.4603,-1.4603,0,-1.4277,-1.4324,-1.4357,-1.4371,-1.4408,-1.4423,-1.4439,-1.4465,-1.4483,-1.4509,-1.4521,-1.4551,-1.4566,-1.4589,-1.4606,-1.4598,-1.4646,-1.4639,-1.4654,-1.4654,-1.4662,-1.4661,-1.4699,-1.4674,-1.4674,-1.4674,-1.4674,0,-1.4308,-1.4335,-1.4362,-1.4383,-1.4413,-1.4431,-1.4461,-1.4478,-1.4501,-1.4524,-1.4535,-1.4557,-1.4579,-1.4603,-1.4617,-1.4649,-1.4656,-1.4665,-1.4668,-1.4663,-1.4662,-1.4672,-1.467,-1.4675,-1.4675,-1.4675,-1.4675,0,-1.4325,-1.4345,-1.4381,-1.4414,-1.4422,-1.4443,-1.4471,-1.4491,-1.4507,-1.4536,-1.4544,-1.4569,-1.4599,-1.4619,-1.4656,-1.4666,-1.47,-1.4703,-1.469,-1.4692,-1.4706,-1.4704,-1.475,-1.4757,-1.4729,-1.4729,-1.4729,0,-1.4343,-1.4364,-1.4398,-1.4415,-1.4431,-1.4457,-1.4476,-1.4495,-1.4513,-1.4546,-1.4561,-1.4592,-1.4617,-1.4664,-1.4685,-1.4714,-1.4718,-1.4732,-1.4722,-1.4716,-1.4717,-1.4715,-1.4716,-1.4733,-1.4733,-1.4733,-1.4734,0,-1.4372,-1.4381,-1.4406,-1.4436,-1.4457,-1.4481,-1.4505,-1.4518,-1.4541,-1.4562,-1.4592,-1.4612,-1.465,-1.468,-1.4711,-1.4728,-1.4734,-1.4737,-1.4742,-1.4736,-1.4728,-1.4732,-1.4694,-1.4735,-1.4735,-1.4735,-1.4735,-1.4735,-1.4389,-1.4408,-1.4435,-1.4464,-1.4484,-1.4506,-1.4526,-1.4545,-1.4571,-1.4603,-1.4613,-1.4645,-1.4671,-1.4714,-1.4731,-1.4756,-1.4754,-1.4762,-1.4763,-1.4765,-1.4764,-1.4725,-1.4762,-1.4762,-1.4762,-1.4762,-1.4762,0,-1.4418,-1.4436,-1.4462,-1.4495,-1.4517,-1.4522,-1.4549,-1.4568,-1.4595,-1.462,-1.4644,-1.4679,-1.4708,-1.4732,-1.4762,-1.4778,-1.4781,-1.4785,-1.4783,-1.4787,-1.4764,-1.4756,-1.4781,-1.4781,-1.4781,-1.4781,-1.4781,-1.4781,-1.4435,-1.4467,-1.4479,-1.4521,-1.4539,-1.457,-1.4585,-1.4605,-1.4625,-1.4663,-1.4688,-1.4703,-1.4728,-1.476,-1.4786,-1.4793,-1.4803,-1.4805,-1.4812,-1.4791,-1.4788,-1.4786,-1.4779,-1.4808,-1.4808,-1.4832,-1.4833,-1.4833]},{"header":{"parameterUnit":"m.s-1","parameterCategory":1,"la1":30.2991,"la2":30.254,"lo1":-89.0895,"lo2":-89.0444,"dy":0.0017,"dx":0.0017,"nx":28,"ny":28,"refTime":"2024-03-14T09:00:00:Z","depth":0,"parameterNumber":3,"parameterNumberName":"V-component_of_WINDS"},"data":[0,0,0,0,0,0,0,0,0,0,0,0,0,0,0,0,0,0,0,0,0,0,0,0,0,0,0,0,0,0,0,0,0,0,0,0,0,0,0,0,0,0,0,0,0,0,0,0,0,0,0,0,0,0,0,0,0,0,2.84,2.84,0,2.8486,2.8487,2.8488,2.8518,2.8518,2.8518,2.8517,2.8604,2.8607,2.861,0,0,0,0,0,0,0,0,0,0,0,0,0,2.8261,2.8263,2.8399,2.8401,2.8402,2.8486,2.8487,2.8488,2.8518,2.8518,2.8518,2.8517,2.8604,2.8607,2.861,0,0,0,0,0,0,0,0,0,0,0,0,0,2.8332,2.8264,2.8399,2.8427,2.843,2.8486,2.8487,2.8489,2.8519,2.8518,2.8518,2.8517,2.8603,2.8606,2.861,2.8644,0,0,2.8622,2.8624,0,0,0,0,0,0,0,0,2.8328,2.8337,2.8422,2.8425,2.8429,2.8491,2.847,2.8541,2.8519,2.8485,2.8517,2.8517,2.8567,2.8574,2.8591,2.8648,2.8652,2.8623,2.8625,2.8627,2.8628,0,0,0,0,0,0,0,2.8323,2.8333,2.8434,2.8423,2.8427,2.8435,2.8445,2.8484,2.8527,2.8488,2.849,2.85,2.8569,2.8587,2.8593,2.8653,2.8622,2.8626,2.8628,2.863,2.8745,2.8746,0,0,0,0,0,0,2.8313,2.8329,2.8431,2.8436,2.8376,2.8438,2.8449,2.8472,2.8527,2.8535,2.8501,2.8501,2.8581,2.8589,2.8596,2.8642,2.8627,2.863,2.8632,2.8745,2.8746,2.8746,0,0,0,0,0,0,2.831,2.8322,2.8427,2.8383,2.8397,2.8441,2.8466,2.8473,2.8492,2.8537,2.8545,2.8511,2.8581,2.8591,2.8633,2.8645,2.8632,2.8636,2.8744,2.8745,2.8746,2.8732,0,0,0,0,0,0,2.8306,2.8321,2.8334,2.8383,2.84,2.8462,2.8467,2.8476,2.8499,2.8501,2.8549,2.8556,2.8581,2.8627,2.8637,2.865,2.8639,2.8743,2.8744,2.8746,2.8731,2.8732,2.8733,0,0,0,0,0,2.8301,2.8325,2.8334,2.8346,2.8417,2.8463,2.8472,2.85,2.85,2.8513,2.8543,2.8555,2.8642,2.8631,2.8642,2.8657,2.8742,2.8744,2.8746,2.8731,2.8732,2.8733,0,0,0,0,0,0,2.8274,2.8332,2.8343,2.8383,2.8418,2.8468,2.8486,2.85,2.8535,2.8535,2.8568,2.8579,2.8619,2.8642,2.8628,2.8695,2.8693,2.8697,2.8678,2.8679,2.868,2.8674,2.8642,0,0,0,0,0,2.8273,2.8306,2.8354,2.8386,2.8403,2.8441,2.8462,2.8482,2.8519,2.8533,2.8565,2.86,2.8636,2.8659,2.8694,2.8735,2.8747,2.8751,2.8752,2.8752,2.8755,2.8781,2.8784,2.8752,2.8752,2.8752,0,0,2.8271,2.8307,2.8325,2.8381,2.8411,2.8444,2.8453,2.8488,2.8514,2.8538,2.858,2.8606,2.8647,2.8689,2.8709,2.871,2.8767,2.8754,2.8754,2.8757,2.8783,2.8786,2.8789,2.8753,2.8753,2.8752,0,0,2.8285,2.8314,2.8345,2.8375,2.842,2.8446,2.8453,2.8501,2.8519,2.8563,2.8583,2.8614,2.8674,2.8703,2.8726,2.8755,2.8768,2.8765,2.877,2.8795,2.8797,2.88,2.8812,2.8816,2.8768,2.8768,2.8768,0,2.8276,2.8328,2.8359,2.8394,2.8419,2.8444,2.8476,2.8503,2.8557,2.8574,2.8574,2.8652,2.8681,2.8732,2.874,2.8757,2.8767,2.876,2.8794,2.8797,2.88,2.8812,2.8816,2.8768,2.8768,2.8768,2.8768,0,2.8317,2.8352,2.8372,2.8425,2.8452,2.8485,2.8522,2.8546,2.8563,2.8589,2.8634,2.8671,2.8716,2.8729,2.8745,2.8783,2.8782,2.8788,2.8787,2.8802,2.8814,2.8819,2.8767,2.8767,2.8767,2.8767,0,0,2.8314,2.8386,2.8393,2.8418,2.8471,2.8499,2.8534,2.8579,2.86,2.8636,2.8668,2.872,2.8726,2.8752,2.8773,2.8794,2.8818,2.8798,2.8799,2.8802,2.8864,2.886,2.8865,2.8827,2.8828,2.8828,2.8861,0,2.8336,2.84,2.843,2.8482,2.8516,2.8543,2.8574,2.861,2.8636,2.8669,2.8698,2.8735,2.874,2.8756,2.8779,2.881,2.8831,2.8808,2.8857,2.8858,2.8847,2.8871,2.8867,2.8896,2.8866,2.8867,2.8867,0,2.8369,2.8408,2.8463,2.8515,2.853,2.8557,2.8603,2.8634,2.8676,2.8694,2.8725,2.8745,2.8784,2.8781,2.8836,2.882,2.8842,2.8861,2.8862,2.8869,2.8864,2.8879,2.8905,2.891,2.8874,2.8874,2.8873,0,2.8364,2.843,2.8472,2.8493,2.8553,2.8573,2.8599,2.864,2.8666,2.8706,2.8723,2.8766,2.879,2.8823,2.8855,2.8849,2.8908,2.8906,2.8924,2.8924,2.8936,2.8935,2.8967,2.8948,2.8948,2.8948,2.8948,0,2.8385,2.8418,2.8471,2.8497,2.8536,2.8571,2.8608,2.8636,2.8674,2.8707,2.8731,2.8761,2.8801,2.8837,2.8862,2.8905,2.8915,2.8931,2.8938,2.893,2.8928,2.8945,2.8945,2.8949,2.8949,2.8948,2.8948,0,2.8386,2.8422,2.847,2.8525,2.854,2.8566,2.8613,2.864,2.8668,2.871,2.8721,2.8766,2.8809,2.8844,2.89,2.8918,2.8964,2.897,2.895,2.8953,2.897,2.8969,2.9016,2.9025,2.8998,2.8998,2.8998,0,2.8397,2.8424,2.8482,2.8507,2.8533,2.8571,2.8599,2.8635,2.8663,2.8715,2.8736,2.8782,2.882,2.8888,2.8926,2.897,2.8979,2.8992,2.8985,2.8977,2.8981,2.898,2.8983,2.8993,2.8993,2.8993,2.8993,0,2.8415,2.8432,2.8471,2.8518,2.855,2.8588,2.8626,2.8645,2.8688,2.8718,2.8764,2.8794,2.8853,2.8899,2.8947,2.8975,2.8992,2.8995,2.9002,2.8995,2.8982,2.8991,2.8953,2.8994,2.8994,2.8994,2.8994,2.8994,2.8422,2.8448,2.8494,2.8538,2.8571,2.8607,2.8637,2.867,2.8709,2.8761,2.878,2.8827,2.8872,2.8939,2.8967,2.9005,2.9006,2.9016,2.9018,2.902,2.9021,2.8976,2.9013,2.9013,2.9014,2.9014,2.9014,0,2.8442,2.8474,2.8514,2.8568,2.8603,2.8618,2.8662,2.869,2.8732,2.8772,2.881,2.8864,2.891,2.8952,2.8999,2.9022,2.9031,2.9033,2.9032,2.9039,2.9015,2.9006,2.9025,2.9025,2.9025,2.9025,2.9025,2.9025,2.8457,2.8503,2.8526,2.859,2.8622,2.8669,2.8694,2.8728,2.8761,2.882,2.8859,2.8887,2.8928,2.898,2.9023,2.9034,2.9051,2.9051,2.9065,2.9042,2.904,2.9039,2.903,2.9054,2.9054,2.9086,2.9086,2.9086]}]]